Location: Melbourne
(37.8666°S, 145.1333°E)
Time: 19:30:13
(UTC+11:00)

Iridium 72 - Visible Passes

Search period start: 23 January 2017 00:00
Search period end: 02 February 2017 00:00
Orbit: 776 x 779 km, 86.4° (Epoch: 22 January)

Date Brightness Start Highest point End Pass type
(mag) Time Alt. Az. Time Alt. Az. Time Alt. Az.
23 Jan 6.0 00:27:33 59° SSW 00:27:33 59° SSW 00:31:51 10° S visible
23 Jan 6.1 23:54:03 47° SE 23:54:03 47° SE 23:58:14 10° SSE visible
24 Jan 7.8 01:34:30 16° WSW 01:34:30 16° WSW 01:37:20 10° SW visible
24 Jan 6.8 23:20:32 28° ESE 23:20:32 28° ESE 23:24:14 10° SSE visible
25 Jan 7.1 01:00:59 28° WSW 01:00:59 28° WSW 01:04:56 10° SSW visible
25 Jan 7.4 22:47:00 15° ESE 22:47:00 15° ESE 22:49:32 10° SE visible
26 Jan 6.3 00:27:28 49° SW 00:27:28 49° SW 00:31:52 10° S visible
26 Jan 5.8 23:53:56 64° SSE 23:53:56 64° SSE 23:58:26 10° S visible
27 Jan 8.1 01:34:24 11° WSW 01:34:29 11° WSW 01:35:34 10° WSW visible
27 Jan 6.3 23:20:23 40° ESE 23:20:23 40° ESE 23:24:40 10° SSE visible
28 Jan 7.5 01:00:51 20° WSW 01:00:51 20° WSW 01:04:28 10° SSW visible
28 Jan 7.0 22:46:50 22° ESE 22:46:50 22° ESE 22:50:27 10° SSE visible
29 Jan 6.7 00:27:19 36° WSW 00:27:19 36° WSW 00:31:44 10° SSW visible
29 Jan 7.5 22:13:17 12° ESE 22:13:17 12° ESE 22:15:09 10° SE visible
29 Jan 5.8 23:53:44 65° SW 23:53:44 65° SW 23:58:31 10° S visible
30 Jan 5.7 23:20:10 59° ESE 23:20:10 59° ESE 23:24:57 10° S visible
31 Jan 7.9 01:00:37 14° WSW 01:00:53 14° WSW 01:03:35 10° SW visible
31 Jan 6.4 22:46:35 33° E 22:46:35 33° E 22:51:02 10° SSE visible
01 Feb 7.2 00:27:03 26° W 00:27:03 26° W 00:31:26 10° SSW visible
01 Feb 7.1 22:12:59 18° E 22:13:06 18° E 22:16:33 10° SE visible
01 Feb 6.2 23:53:26 48° W 23:53:26 48° W 23:58:28 10° S visible
